Powrót do katalogu

IRIDIUM 33 DEB

AktywnyPO
NORAD 35850·DEBRIS·🇺🇸 United States

Wystrzelony Sep 14, 1997 z Baikonur Cosmodrome

Loading…

Następne Przeloty (najbliższe 24 godziny)

TLE

ŚwieżeSource: Space-Track

Epoka: Sep 14, 2026, 04:39 UTC

1 35850U 97051TA  26257.19376052  .00007320  00000-0  86235-3 0  9997
2 35850  86.3486 218.2194 0007530 339.8194  20.2731 14.84649943754370

Śledź IRIDIUM 33 DEB w czasie rzeczywistym z AllMySat

Download on the App Store